www.pogodaiklimat.ru
ПОГОДА в Квакертауне
Время
и дата
04:35 01.12
04:55 01.12
05:15 01.12
05:35 01.12
05:55 01.12
06:15 01.12
06:35 01.12
06:55 01.12
07:15 01.12
07:35 01.12
07:55 01.12
08:15 01.12
08:35 01.12
08:55 01.12
09:15 01.12
09:35 01.12
09:55 01.12
10:15 01.12
10:35 01.12
10:55 01.12
11:15 01.12
11:35 01.12
11:55 01.12
12:15 01.12
12:35 01.12
12:55 01.12
13:15 01.12
13:35 01.12
13:55 01.12
14:15 01.12
14:35 01.12
14:55 01.12
15:15 01.12
15:35 01.12
15:55 01.12
16:15 01.12
16:35 01.12
16:55 01.12
17:15 01.12
17:35 01.12
17:55 01.12
18:15 01.12
18:35 01.12
18:55 01.12
19:15 01.12
19:35 01.12
19:55 01.12
20:15 01.12
Ветер
(напр.,м/с)
Видим. Явления Облачность Т
(С)
Тd
(С)
f
(%)
Тe
(С)
Тes
(С)
Комфортность P
(гПа)
Po
(гПа)
Тmin
(С)
Tmax
(С)
R
(мм)
R24
(мм)
S
(см)
нст 3
{9}
16 км 2/2 1650 м +1.0 -8.0 51 -3 -3 1000.0
З 5
{8}
16 км ясно +1.0 -9.0 47 -4 -4 1000.0
З 4
{8}
16 км ясно +1.0 -8.0 51 -4 -4 1000.7
З 5 16 км ясно +1.0 -9.0 47 -4 -4 1001.0
З 4
{8}
16 км ясно +1.0 -9.0 47 -3 -3 1001.3
З 6
{10}
16 км ясно 0.0 -10.0 47 -6 -6 1001.7
З 5 16 км ясно 0.0 -9.0 51 -5 -5 1002.0
З 5 16 км ясно 0.0 -10.0 47 -5 -5 1002.6
З 4
{7}
16 км ясно 0.0 -10.0 47 -5 -5 1003.3
З 5 16 км 2/2 1650 м 0.0 -9.0 51 -5 -5 1003.6
З 6 16 км 2/2 1650 м 0.0 -9.0 51 -6 -6 1004.0
З 6
{8}
16 км ясно +1.0 -9.0 47 -5 -4 1004.3
З 4
{9}
16 км 2/2 1500 м +1.0 -9.0 47 -3 -3 1005.0
З 5
{8}
16 км 2/2 1500 м +2.0 -9.0 44 -3 -3 1005.0
З 5
{9}
16 км ясно +2.0 -9.0 44 -3 -2 1005.3
З 5
{9}
16 км ясно +2.0 -9.0 44 -3 -2 1005.6
З 5
{10}
16 км 2/2 1500 м +2.0 -9.0 44 -3 -2 1006.3
З 6
{11}
16 км 8/8 1500 м +2.0 -8.0 47 -3 -3 1007.0
З 6
{9}
16 км 10/10 1470 м +2.0 -8.0 47 -3 -3 1007.0
З 4
{8}
16 км 10/10 1440 м +2.0 -8.0 47 -2 -2 1007.0
З 4
{8}
16 км 10/10 1410 м +2.0 -8.0 47 -2 -2 1007.0
З 4
{9}
16 км 8/8 1410 м +2.0 -8.0 47 -2 -2 1007.0
З 4
{9}
16 км 8/8 1410 м +2.0 -8.0 47 -2 -2 1007.3
З 3 16 км 8/8 1380 м +3.0 -7.0 48 0 +1 1007.3
З 4
{7}
16 км 8/8 1350 м +4.0 -6.0 48 0 +1 1007.0
З 5
{10}
16 км 5/5 1350 м +4.0 -7.0 45 0 +1 1007.3
З 7
{10}
16 км 8/8 1410 м +4.0 -7.0 45 -1 -1 1007.3
З 6
{9}
16 км 8/8 1440 м +4.0 -7.0 45 -1 0 1007.6
З 6
{9}
16 км 5/5 1470 м +4.0 -7.0 45 -1 0 1007.6
З 6
{10}
16 км ясно +5.0 -7.0 42 +1 +2 1007.6
З 6
{8}
10 км мгла 2/2 1440 м +4.0 -7.0 45 -1 0 1008.0
З 4
{8}
16 км 8/8 1440 м +4.0 -7.0 45 0 +1 1008.3
нст 4
{8}
16 км 8/8 1440 м +4.0 -7.0 45 0 +1 1008.6
З 4 16 км 2/2 1440 м +4.0 -7.0 45 0 +1 1008.6
нст 3 16 км ясно +4.0 -7.0 45 +1 +2 1009.3
З 4 16 км ясно +3.0 -7.0 48 -1 -1 1009.6
З 4
{7}
16 км ясно +2.0 -7.0 51 -2 -2 1010.0
З 3
{6}
16 км ясно +2.0 -7.0 51 -2 -1 1010.3
штиль 0 16 км ясно +2.0 -7.0 51 +2 +2 1011.0
З 2
{5}
16 км ясно +2.0 -7.0 51 -1 -1 1011.0
З 2 16 км ясно +1.0 -7.0 55 -2 -2 1011.3
штиль 0 16 км ясно +1.0 -7.0 55 +1 +1 1011.3
З 2 16 км ясно +1.0 -7.0 55 -2 -2 1011.3
штиль 0 16 км ясно 0.0 -7.0 59 -1 -1 1011.0
З 3 16 км ясно 0.0 -7.0 59 -4 -4 1011.3
штиль 0 16 км ясно 0.0 -7.0 59 -1 -1 1011.3
штиль 0 16 км ясно 0.0 -7.0 59 -1 -1 1011.3
штиль 0 16 км ясно 0.0 -7.0 59 -1 -1 1011.6
Местоположение метеостанции Quakertown Airport: широта 40.4350 долгота -75.3817 высота над уровнем моря 160 м.
В архиве по умолчанию представлена погода в Квакертауне за последние 1-2 суток. Обновление информации о фактической погоде в базе происходит ежечасно! Архивные данные за месяц целиком и за предыдущие месяцы Вы можете получить, выбрав интересующий диапазон дат из раскрывающегося списка и нажав кнопку "Ввод!".
Внимание! Архив погоды МЕТАР в базе сайта по станциям, не включенным в климатический монитор, хранится не более 60 дней. Нет смысла пытаться выбрать более раннюю дату.
*Определитесь, кто Вы:
Внимание! Время в таблицах - местное (без учета летнего времени). Для получения всемирного времени необходимо вычесть поправку, которая равна -5 ч.
Смотрите также архив погоды в соседних городах и на ближайших метеорологических станциях:
Партнеры нашего сайта:      
Пояснения к столбцам:
  • Ветер - указаны скорость ветра в м/с - средняя за 10 мин, порывы в срок и между сроками (в фигурных скобках) и направление, откуда дует ветер: С - северный,
  • СВ - северо-восточный, В - восточный, ЮВ - юго-восточный, Ю - южный, ЮЗ - юго-западный, З - западный, СЗ - северо-западный.
  • Видимость - горизонтальная дальность видимости в метрах или километрах. При видимости от 1 до 10 км при отсутствии осадков обычно наблюдается дымка, при ухудшении видимости до 1 км и менее - туман. В сухую погоду видимость может ухудшаться дымом, пылью или мглою.
  • Явления - указаны атмосферные явления, наблюдавшиеся в срок или в последний час перед сроком; фигурными скобками обозначены явления, наблюдавшиеся между сроками (за 1-3 часа до срока); квадратными скобками обозначены град или гололедные отложения с указанием их диаметра в мм.
  • Облачность - указаны через наклонную черту общая и нижняя облачность в баллах и высота нижней границы облаков в метрах; квадратными скобками обозначены формы облаков: Ci - перистые, Cs - перисто-слоистые, Cc - перисто-кучевые, Ac - высококучевые, As - высокослоистые, Sc - слоисто-кучевые, Ns - слоисто-дождевые, Cu - кучевые, Cb - кучево-дождевые. Подробнее классификацию облаков см. в Атласе облаков (PDF).
  • T - Температура воздуха - температура, измеренная на высоте 2 м над землей.
  • Td - Температура точки росы - температура, при понижении до которой содержащийся в воздухе водяной пар достигнет насыщения.
  • f - Относительная влажность воздуха - влажноcть воздуха, измеренная на высоте 2 м над землей.
  • Te - Эффективная температура - температура, которую ощущает одетый по сезону человек в тени. Характеристика душности погоды. При расчете учитывается влияние влажности воздуха и скорости ветра на теплоощущения человека.
  • Tes - Эффективная температура на солнце - температура, которую ощущает человек, с поправкой на солнечный нагрев. Характеристика знойности погоды. Зависит от высоты солнца над горизонтом, облачности и скорости ветра. Ночью, в пасмурную погоду, а также при ветре 12 м/с и более поправка равна нулю.
  • P - Атмосферное давление - приведенное к уровню моря атмосферное давление.
  • Po - Атмосферное давление - измеренное на уровне метеостанции атмосферное давление.
  • Tmin - Минимальная температура - минимум температуры воздуха на высоте 2 м над землей.
  • Tmax - Максимальная температура - максимум температуры воздуха на высоте 2 м над землей.
  • R - Количество осадков - Количество выпавших осадков за период времени, мм. При наведении курсора мыши на число - период времени, за который выпало указанное количество осадков.
  • R24 - Количество осадков - Количество выпавших осадков за 24 часа, мм.
  • S - Снежный покров - Высота снежного покрова, см. При наведении курсора мыши на число - состояние снежного покрова и степень покрытия местности в баллах.